Content
SEND FEEDBACK

Daily
Averages
Monthly
Summary
United States of America

ONAVA, NEW MEXICO


Home > North America > United States > New Mexico
Elevation: 6710 feet     Latitude: 35 42N     Longitude: 105 07W

WEATHER
 
SELECT A DAY
Number of Records: 160,504;   Date Range: 1/1/95 - 7/26/14
 
SHARE

PRINT THIS DATA

[ ← Previous Day ]
WEATHER ALMANAC - JANUARY 31, 2013
[ Next Day → ]
[ °C ]   °F
Weather ElementAverageHighLow
Temperature36.4 °F50 °F (1:53 pm)26.1 °F (11:53 pm)
Dewpoint9.5 °F12.9 °F (7:53 am)1 °F (3:53 pm)
Humidity35.3 %51 % (7:53 am)13 % (3:53 pm)
Barometer30.08 in30.19 in (7:53 pm)29.96 in (2:53 am)
Wind Speed10.6 mph26.5 mph (2:53 am)
Wind Gust38 mph (3:53 am)
Weather ElementAverage
Visibility10 mi
Wind DirectionSSE (163 °)

Weather ElementTotal
Precipitation---
Heating Degree Days27 (Base 65)
Averaged from 23 records on January 31, 2013
WEATHER CONDITIONS BREAKOUT
WIND DIRECTION BREAKOUT
WEATHER BY HOUR - JANUARY 31, 2013
[ °C ]   °F
Local TimeTemperatureDewpointHumidityBarometerVisibilityWind DirectionWind SpeedGust SpeedPrecipitationEventsConditions
1:53 AM30.9 °F12.0 °F46 %29.99 in10.0 miNW (310°)25.3 mph35.7 mphClear
2:53 AM30.9 °F12.0 °F46 %29.96 in10.0 miNW (320°)26.5 mph36.8 mphClear
3:53 AM30.9 °F12.0 °F46 %29.97 in10.0 miNW (310°)26.5 mph38.0 mphClear
4:53 AM30.0 °F10.9 °F45 %30.03 in10.0 miWNW (300°)17.3 mph26.5 mphClear
5:53 AM30.0 °F10.9 °F45 %30.04 in10.0 miWNW (300°)12.7 mph23.0 mphClear
6:53 AM30.9 °F10.9 °F43 %30.06 in10.0 miWNW (300°)26.5 mph38.0 mphClear
7:53 AM28.9 °F12.9 °F51 %30.12 in10.0 miNE (40°)10.4 mphClear
8:53 AM36.0 °F12.0 °F37 %30.09 in10.0 miNE (40°)15.0 mphClear
9:53 AM39.9 °F10.9 °F31 %30.10 in10.0 miVariable4.6 mphClear
10:53 AM41.0 °F12.0 °F31 %30.10 in10.0 miSouth (180°)16.1 mph25.3 mphClear
11:53 AM45.0 °F10.0 °F24 %30.09 in10.0 miSouth (190°)10.4 mphClear
12:53 PM46.0 °F7.0 °F20 %30.04 in10.0 miEast (80°)3.5 mphClear
1:53 PM50.0 °F3.9 °F15 %30.01 in10.0 miWNW (290°)5.8 mphClear
2:53 PM50.0 °F1.9 °F14 %30.03 in10.0 miESE (120°)4.6 mphClear
3:53 PM50.0 °F1.0 °F13 %30.05 in10.0 miCalmClear
4:53 PM46.9 °F12.9 °F25 %30.07 in10.0 miSSW (210°)10.4 mphClear
5:53 PM37.0 °F12.0 °F36 %30.13 in10.0 miSouth (190°)8.1 mphClear
6:53 PM37.0 °F10.9 °F34 %30.14 in10.0 miSouth (170°)5.8 mphClear
7:53 PM30.9 °F8.1 °F38 %30.19 in10.0 miENE (60°)6.9 mphClear
8:53 PM30.9 °F10.0 °F42 %30.15 in10.0 miCalmClear
9:53 PM28.0 °F9.0 °F45 %30.14 in10.0 miNNW (340°)8.1 mphClear
10:53 PM30.0 °F9.0 °F41 %30.13 in10.0 miCalmClear
11:53 PM26.1 °F7.0 °F44 %30.12 in10.0 miCalmClear
Hourly data recorded from KLVS, located miles away from Onava, New Mexico







STORIES FROM OUR PARTNERS